Location: Caltech
(34.1382°N, 118.1253°W)
Time: 16:01:23
(UTC-07:00)

Tiros 1 despin weight - All Passes

Search period start: 27 July 2016 00:00
Search period end: 06 August 2016 00:00
Orbit: 596 x 644 km, 48.2° (Epoch: 27 July)

Date Brightness Start Highest point End Pass type
(mag) Time Alt. Az. Time Alt. Az. Time Alt. Az.
27 Jul - 00:25:07 10° SW 00:29:37 78° SE 00:34:06 10° NE visible
27 Jul - 02:07:58 10° WNW 02:11:36 24° NNW 02:15:12 10° NNE visible
27 Jul - 03:52:22 10° NNW 03:54:27 13° N 03:56:33 10° NNE visible
27 Jul - 05:34:14 10° NNW 05:37:26 19° NNE 05:40:37 10° ENE visible
27 Jul - 07:15:12 10° NW 07:19:37 70° NE 07:24:02 10° ESE daylight
27 Jul - 08:57:59 10° W 09:00:49 17° SW 09:03:38 10° S daylight
27 Jul - 23:01:54 10° S 23:05:33 24° SE 23:09:10 10° ENE night (unlit)
28 Jul - 00:42:31 10° WSW 00:46:55 52° NNW 00:51:18 10° NE visible
28 Jul - 02:26:21 10° WNW 02:29:17 17° NNW 02:32:12 10° NNE visible
28 Jul - 04:10:06 10° NNW 04:12:19 13° N 04:14:32 10° NE visible
28 Jul - 05:51:13 10° NW 05:55:04 28° NNE 05:58:54 10° E daylight
28 Jul - 07:32:31 10° WNW 07:36:50 55° SW 07:41:10 10° SE daylight
28 Jul - 23:18:13 10° SSW 23:22:38 52° SE 23:26:59 10° ENE night (unlit)
29 Jul - 01:00:24 10° W 01:04:23 30° NNW 01:08:19 10° NE visible
29 Jul - 02:44:47 10° NW 02:47:05 14° N 02:49:23 10° NNE visible
29 Jul - 04:27:19 10° NNW 04:30:08 16° NNE 04:32:56 10° NE visible
29 Jul - 06:08:14 10° NW 06:12:32 49° NNE 06:16:49 10° ESE daylight
29 Jul - 07:50:16 10° WNW 07:53:54 25° SW 07:57:33 10° S daylight
29 Jul - 21:55:53 10° SSE 21:58:39 16° SE 22:01:24 10° E night (unlit)
29 Jul - 23:35:17 10° WSW 23:39:50 76° NW 23:44:20 10° NE night (unlit)
30 Jul - 01:18:39 10° WNW 01:21:59 20° NNW 01:25:18 10° NNE visible
30 Jul - 03:02:51 10° NNW 03:04:57 13° N 03:07:02 10° NNE visible
30 Jul - 04:44:19 10° NNW 04:47:50 22° NNE 04:51:20 10° ENE visible
30 Jul - 06:25:24 10° NW 06:29:50 84° SW 06:34:16 10° SE daylight
30 Jul - 08:09:36 10° WSW 08:10:51 11° SW 08:12:07 10° SW daylight
30 Jul - 22:11:31 10° SSW 22:15:39 34° SE 22:19:45 10° ENE night (unlit)
30 Jul - 23:52:55 10° W 23:57:12 40° NNW 00:01:26 10° NE visible
31 Jul - 01:37:05 10° NW 01:39:44 15° NNW 01:42:21 10° NNE visible
31 Jul - 03:20:19 10° NNW 03:22:48 14° N 03:25:16 10° NE visible
31 Jul - 05:01:18 10° NW 05:05:24 35° NNE 05:09:28 10° E visible
31 Jul - 06:42:53 10° WNW 06:46:59 38° SW 06:51:05 10° SSE daylight
31 Jul - 22:28:13 10° SW 22:32:47 75° SE 22:37:17 10° NE night (unlit)
01 Aug - 00:11:00 10° W 00:14:43 25° NNW 00:18:25 10° NNE visible
01 Aug - 01:55:24 10° NNW 01:57:34 13° N 01:59:43 10° NNE visible
01 Aug - 03:37:24 10° NNW 03:40:34 19° NNE 03:43:42 10° ENE visible
01 Aug - 05:18:22 10° NW 05:22:47 67° NE 05:27:11 10° ESE visible
01 Aug - 07:01:03 10° W 07:03:59 17° SW 07:06:55 10° S daylight
01 Aug - 21:05:05 10° S 21:08:42 23° SE 21:12:18 10° E visible
01 Aug - 22:45:34 10° WSW 22:50:03 55° NW 22:54:30 10° NE visible
02 Aug - 00:29:21 10° WNW 00:32:23 17° NNW 00:35:25 10° NNE visible
02 Aug - 02:13:12 10° NNW 02:15:26 13° N 02:17:40 10° NE visible
02 Aug - 03:54:23 10° NW 03:58:13 27° NNE 04:02:00 10° E visible
02 Aug - 05:35:40 10° WNW 05:40:01 59° SW 05:44:21 10° SE visible
02 Aug - 21:21:20 10° SSW 21:25:46 49° SE 21:30:10 10° ENE visible
02 Aug - 23:03:25 10° W 23:07:29 31° NNW 23:11:32 10° NE visible
03 Aug - 00:47:47 10° NW 00:50:12 14° N 00:52:35 10° NNE visible
03 Aug - 02:30:27 10° NNW 02:33:15 16° NNE 02:36:02 10° NE visible
03 Aug - 04:11:23 10° NW 04:15:41 47° NNE 04:19:57 10° ESE visible
03 Aug - 05:53:23 10° WNW 05:57:05 26° SW 06:00:47 10° S daylight
03 Aug - 19:59:07 10° SSE 20:01:48 15° SE 20:04:27 10° E daylight
03 Aug - 21:38:21 10° SW 21:42:58 80° NW 21:47:31 10° NE visible
03 Aug - 23:21:39 10° WNW 23:25:06 21° NNW 23:28:31 10° NNE visible
04 Aug - 01:05:53 10° NNW 01:08:03 13° N 01:10:12 10° NNE visible
04 Aug - 02:47:28 10° NNW 02:50:58 22° NNE 02:54:26 10° ENE visible
04 Aug - 04:28:33 10° NW 04:33:00 88° SW 04:37:25 10° SE visible
04 Aug - 06:12:26 10° WSW 06:14:02 12° SW 06:15:38 10° SSW daylight
04 Aug - 20:14:39 10° SSW 20:18:47 33° SE 20:22:53 10° ENE visible
04 Aug - 21:55:57 10° WSW 22:00:19 42° NNW 22:04:38 10° NE visible
04 Aug - 23:40:04 10° NW 23:42:50 16° NNW 23:45:34 10° NNE visible
05 Aug - 01:23:24 10° NNW 01:25:54 14° N 01:28:22 10° NE visible
05 Aug - 03:04:27 10° NW 03:08:32 34° NNE 03:12:35 10° E visible
05 Aug - 04:46:00 10° WNW 04:50:10 40° SW 04:54:17 10° SSE visible
05 Aug - 20:31:18 10° SW 20:35:54 71° SE 20:40:27 10° ENE visible
05 Aug - 22:14:00 10° W 22:17:50 26° NNW 22:21:38 10° NNE visible
